| time (UTC) | temp F | wind direction | speed MPH | gust MPH | rain 1hr in | rain 24hr in | rain mn in | humidity % | barometer mb |
| 20260903152148 | 77 | 328 | 2.0 | 3.0 | 0.00 | 0.18 | 0.18 | 80 | 1019.0 |
| 20260903151648 | 77 | 300 | 2.0 | 2.0 | 0.00 | 0.18 | 0.18 | 81 | 1018.8 |
| 20260903151143 | 76 | 209 | 2.0 | 3.0 | 0.00 | 0.18 | 0.18 | 82 | 1018.9 |
| 20260903150643 | 76 | 235 | 2.0 | 2.0 | 0.00 | 0.18 | 0.18 | 81 | 1019.1 |
| 20260903150138 | 76 | 227 | 1.0 | 1.0 | 0.00 | 0.18 | 0.18 | 81 | 1018.9 |
| 20260903145637 | 76 | 242 | 1.0 | 2.0 | 0.00 | 0.18 | 0.18 | 82 | 1019.1 |
| 20260903145132 | 76 | 223 | 2.0 | 3.0 | 0.00 | 0.18 | 0.18 | 81 | 1019.2 |
| 20260903144631 | 75 | 52 | 1.0 | 2.0 | 0.00 | 0.18 | 0.18 | 83 | 1019.1 |
| 20260903144128 | 74 | 275 | 0.0 | 0.0 | 0.00 | 0.18 | 0.18 | 85 | 1019.0 |
| 20260903143624 | 75 | 128 | 4.0 | 6.0 | 0.00 | 0.18 | 0.18 | 84 | 1019.3 |
| 20260903143119 | 75 | 239 | 2.0 | 3.0 | 0.00 | 0.18 | 0.18 | 84 | 1019.1 |
| 20260903142615 | 75 | 288 | 1.0 | 1.0 | 0.00 | 0.18 | 0.18 | 85 | 1019.1 |
| 20260903142111 | 75 | 246 | 2.0 | 2.0 | 0.00 | 0.18 | 0.18 | 84 | 1019.3 |
| 20260903141606 | 75 | 208 | 2.0 | 2.0 | 0.00 | 0.18 | 0.18 | 84 | 1019.1 |
| 20260903141101 | 75 | 194 | 0.0 | 1.0 | 0.00 | 0.18 | 0.18 | 85 | 1018.9 |
| 20260903140557 | 75 | 220 | 3.0 | 4.0 | 0.00 | 0.18 | 0.18 | 84 | 1019.1 |
| 20260903140052 | 75 | 255 | 2.0 | 3.0 | 0.00 | 0.18 | 0.18 | 84 | 1019.1 |
| 20260903135549 | 74 | 217 | 2.0 | 2.0 | 0.00 | 0.18 | 0.18 | 85 | 1019.1 |
| 20260903135049 | 74 | 201 | 1.0 | 1.0 | 0.00 | 0.18 | 0.18 | 87 | 1019.3 |
| 20260903134548 | 74 | 330 | 0.0 | 1.0 | 0.00 | 0.18 | 0.18 | 87 | 1019.4 |
| 20260903134044 | 73 | 226 | 2.0 | 2.0 | 0.00 | 0.18 | 0.18 | 87 | 1019.3 |
| 20260903133536 | 73 | 235 | 2.0 | 2.0 | 0.00 | 0.18 | 0.18 | 87 | 1019.1 |
| 20260903133031 | 74 | 238 | 2.0 | 3.0 | 0.00 | 0.18 | 0.18 | 86 | 1019.4 |
| 20260903132526 | 73 | 224 | 1.0 | 2.0 | 0.00 | 0.18 | 0.18 | 87 | 1019.3 |
| 20260903132021 | 73 | 226 | 2.0 | 2.0 | 0.00 | 0.18 | 0.18 | 88 | 1019.1 |
| 20260903131516 | 71 | 224 | 2.0 | 3.0 | 0.00 | 0.18 | 0.18 | 90 | 1019.0 |
| 20260903131015 | 72 | 229 | 1.0 | 2.0 | 0.00 | 0.18 | 0.18 | 92 | 1019.1 |
| 20260903130510 | 71 | 220 | 1.0 | 1.0 | 0.00 | 0.18 | 0.18 | 93 | 1019.5 |
| 20260903130009 | 71 | 251 | 1.0 | 1.0 | 0.00 | 0.18 | 0.18 | 94 | 1019.5 |
| 20260903125508 | 71 | 233 | 1.0 | 2.0 | 0.00 | 0.18 | 0.18 | 95 | 1019.6 |
| 20260903125003 | 71 | 192 | 0.0 | 0.0 | 0.00 | 0.18 | 0.18 | 95 | 1019.6 |
| 20260903124458 | 70 | 213 | 0.0 | 0.0 | 0.00 | 0.18 | 0.18 | 96 | 1019.7 |
| 20260903123956 | 70 | 192 | 0.0 | 1.0 | 0.00 | 0.18 | 0.18 | 96 | 1019.7 |
| 20260903123451 | 70 | 228 | 1.0 | 1.0 | 0.00 | 0.18 | 0.18 | 96 | 1019.9 |
| 20260903122950 | 70 | 218 | 0.0 | 0.0 | 0.00 | 0.18 | 0.18 | 96 | 1019.8 |
| 20260903122444 | 70 | 223 | 0.0 | 0.0 | 0.00 | 0.18 | 0.18 | 96 | 1019.9 |
| 20260903121943 | 70 | 207 | 0.0 | 0.0 | 0.00 | 0.18 | 0.18 | 96 | 1019.9 |
| 20260903121438 | 70 | 202 | 0.0 | 0.0 | 0.00 | 0.18 | 0.18 | 96 | 1019.8 |
| 20260903120934 | 70 | 186 | 0.0 | 1.0 | 0.00 | 0.18 | 0.18 | 96 | 1019.7 |
| 20260903120433 | 70 | 235 | 0.0 | 0.0 | 0.00 | 0.18 | 0.18 | 96 | 1020.2 |
| 20260903115932 | 70 | 222 | 0.0 | 0.0 | 0.00 | 0.18 | 0.18 | 96 | 1019.8 |
| 20260903115432 | 69 | 218 | 0.0 | 0.0 | 0.00 | 0.18 | 0.18 | 96 | 1019.7 |
| 20260903114927 | 70 | 221 | 0.0 | 0.0 | 0.00 | 0.18 | 0.18 | 96 | 1019.9 |
| 20260903114422 | 70 | 221 | 0.0 | 0.0 | 0.00 | 0.18 | 0.18 | 96 | 1019.8 |
| 20260903113918 | 69 | 222 | 0.0 | 0.0 | 0.00 | 0.18 | 0.18 | 96 | 1020.0 |
| 20260903113414 | 69 | 225 | 0.0 | 0.0 | 0.00 | 0.18 | 0.18 | 96 | 1020.0 |
| 20260903112909 | 69 | 225 | 0.0 | 0.0 | 0.00 | 0.18 | 0.18 | 96 | 1020.0 |
| 20260903112405 | 69 | 227 | 0.0 | 0.0 | 0.00 | 0.18 | 0.18 | 96 | 1019.9 |
| 20260903111904 | 69 | 191 | 1.0 | 1.0 | 0.00 | 0.18 | 0.18 | 96 | 1019.8 |
| 20260903111403 | 69 | 195 | 0.0 | 0.0 | 0.00 | 0.18 | 0.18 | 96 | 1019.7 |
| 20260903110900 | 69 | 222 | 0.0 | 0.0 | 0.00 | 0.18 | 0.18 | 96 | 1019.9 |
| 20260903110355 | 69 | 231 | 0.0 | 0.0 | 0.00 | 0.18 | 0.18 | 96 | 1019.9 |
| 20260903105849 | 69 | 232 | 0.0 | 0.0 | 0.00 | 0.18 | 0.18 | 96 | 1019.6 |
| 20260903105344 | 69 | 205 | 0.0 | 0.0 | 0.00 | 0.18 | 0.18 | 96 | 1019.4 |
| 20260903104838 | 69 | 210 | 0.0 | 0.0 | 0.00 | 0.18 | 0.18 | 96 | 1019.7 |
| 20260903104334 | 69 | 211 | 0.0 | 0.0 | 0.00 | 0.18 | 0.18 | 96 | 1019.8 |
| 20260903103831 | 69 | 247 | 0.0 | 1.0 | 0.00 | 0.18 | 0.18 | 96 | 1020.0 |
| 20260903103326 | 69 | 229 | 0.0 | 0.0 | 0.00 | 0.18 | 0.18 | 96 | 1019.8 |
| 20260903102821 | 69 | 219 | 0.0 | 0.0 | 0.00 | 0.18 | 0.18 | 96 | 1019.9 |
| 20260903102316 | 69 | 227 | 0.0 | 0.0 | 0.00 | 0.18 | 0.18 | 96 | 1019.7 |
| 20260903101815 | 69 | 205 | 0.0 | 0.0 | 0.00 | 0.18 | 0.18 | 96 | 1019.6 |
| 20260903101310 | 69 | 304 | 1.0 | 2.0 | 0.00 | 0.18 | 0.18 | 96 | 1019.7 |
| 20260903100806 | 69 | 237 | 0.0 | 1.0 | 0.00 | 0.18 | 0.18 | 96 | 1019.5 |
| 20260903100300 | 69 | 233 | 0.0 | 0.0 | 0.00 | 0.18 | 0.18 | 96 | 1019.3 |
| 20260903095757 | 69 | 235 | 0.0 | 0.0 | 0.00 | 0.18 | 0.18 | 96 | 1019.2 |
| 20260903095251 | 69 | 194 | 0.0 | 0.0 | 0.00 | 0.18 | 0.18 | 96 | 1019.3 |
| 20260903094747 | 69 | 229 | 0.0 | 0.0 | 0.00 | 0.18 | 0.18 | 96 | 1019.4 |
| 20260903094241 | 68 | 189 | 1.0 | 1.0 | 0.00 | 0.18 | 0.18 | 96 | 1019.2 |
| 20260903093737 | 68 | 233 | 0.0 | 0.0 | 0.00 | 0.18 | 0.18 | 96 | 1019.5 |
| 20260903093232 | 68 | 204 | 1.0 | 1.0 | 0.00 | 0.18 | 0.18 | 96 | 1019.2 |
| 20260903092731 | 68 | 268 | 2.0 | 2.0 | 0.00 | 0.18 | 0.18 | 96 | 1019.5 |
| 20260903092227 | 68 | 234 | 0.0 | 0.0 | 0.00 | 0.18 | 0.18 | 96 | 1019.3 |
| 20260903091725 | 68 | 218 | 0.0 | 0.0 | 0.00 | 0.18 | 0.18 | 96 | 1019.3 |
| 20260903091220 | 68 | 232 | 0.0 | 0.0 | 0.00 | 0.18 | 0.18 | 96 | 1019.5 |
| 20260903090716 | 68 | 237 | 0.0 | 0.0 | 0.00 | 0.18 | 0.18 | 96 | 1019.4 |
| 20260903090214 | 68 | 240 | 0.0 | 0.0 | 0.00 | 0.18 | 0.18 | 96 | 1019.5 |
| 20260903085713 | 68 | 252 | 0.0 | 0.0 | 0.00 | 0.18 | 0.18 | 96 | 1019.1 |
| 20260903085209 | 68 | 213 | 0.0 | 0.0 | 0.00 | 0.18 | 0.18 | 96 | 1019.1 |
| 20260903084706 | 68 | 216 | 0.0 | 0.0 | 0.00 | 0.18 | 0.18 | 96 | 1019.3 |
| 20260903084201 | 68 | 216 | 0.0 | 0.0 | 0.00 | 0.18 | 0.18 | 96 | 1019.4 |
| 20260903083657 | 68 | 216 | 0.0 | 0.0 | 0.00 | 0.18 | 0.18 | 95 | 1019.6 |
| 20260903083157 | 68 | 233 | 0.0 | 0.0 | 0.00 | 0.18 | 0.18 | 95 | 1019.7 |
| 20260903082651 | 68 | 237 | 0.0 | 0.0 | 0.00 | 0.18 | 0.18 | 95 | 1019.8 |
| 20260903082147 | 68 | 232 | 0.0 | 0.0 | 0.00 | 0.18 | 0.18 | 95 | 1020.1 |
| 20260903081641 | 68 | 232 | 0.0 | 0.0 | 0.00 | 0.18 | 0.18 | 95 | 1020.0 |
| 20260903081138 | 68 | 240 | 0.0 | 0.0 | 0.00 | 0.18 | 0.18 | 95 | 1020.1 |
| 20260903080634 | 68 | 229 | 1.0 | 2.0 | 0.07 | 0.18 | 0.18 | 95 | 1020.3 |
| 20260903080132 | 68 | 251 | 0.0 | 0.0 | 0.07 | 0.18 | 0.18 | 95 | 1020.0 |
| 20260903075630 | 68 | 200 | 0.0 | 0.0 | 0.00 | 0.17 | 0.17 | 95 | 1019.8 |
| 20260903075125 | 68 | 189 | 0.0 | 0.0 | 0.00 | 0.17 | 0.17 | 95 | 1019.7 |
| 20260903074620 | 68 | 191 | 0.0 | 0.0 | 0.00 | 0.17 | 0.17 | 95 | 1020.0 |
| 20260903074120 | 68 | 201 | 0.0 | 0.0 | 0.00 | 0.17 | 0.17 | 95 | 1020.2 |
| 20260903073615 | 68 | 207 | 0.0 | 0.0 | 0.00 | 0.17 | 0.17 | 95 | 1020.1 |
| 20260903073111 | 68 | 205 | 0.0 | 0.0 | 0.00 | 0.17 | 0.17 | 95 | 1020.4 |
| 20260903072606 | 68 | 205 | 0.0 | 0.0 | 0.05 | 0.17 | 0.17 | 95 | 1020.3 |
| 20260903072102 | 68 | 205 | 0.0 | 0.0 | 0.05 | 0.17 | 0.17 | 95 | 1020.5 |
| 20260903071559 | 68 | 204 | 0.0 | 0.0 | 0.05 | 0.17 | 0.17 | 95 | 1020.5 |
| 20260903071059 | 68 | 216 | 0.0 | 0.0 | 0.07 | 0.16 | 0.16 | 95 | 1020.4 |
| 20260903070554 | 68 | 227 | 0.0 | 0.0 | 0.07 | 0.16 | 0.16 | 95 | 1020.6 |
| 20260903070050 | 68 | 223 | 0.0 | 1.0 | 0.00 | 0.15 | 0.15 | 95 | 1020.6 |
| 20260903065549 | 68 | 234 | 0.0 | 0.0 | 0.00 | 0.15 | 0.15 | 95 | 1020.6 |
| 20260903065048 | 68 | 226 | 0.0 | 0.0 | 0.00 | 0.15 | 0.15 | 95 | 1020.8 |
| 20260903064543 | 68 | 227 | 0.0 | 0.0 | 0.00 | 0.15 | 0.15 | 95 | 1020.5 |
| 20260903064038 | 68 | 215 | 0.0 | 0.0 | 0.05 | 0.15 | 0.15 | 95 | 1020.4 |
| 20260903063533 | 68 | 215 | 0.0 | 0.0 | 0.05 | 0.15 | 0.15 | 95 | 1020.5 |
| 20260903063029 | 68 | 216 | 0.0 | 0.0 | 0.00 | 0.14 | 0.14 | 95 | 1020.5 |
| 20260903062524 | 68 | 216 | 0.0 | 0.0 | 0.00 | 0.14 | 0.14 | 95 | 1020.5 |
| 20260903062020 | 68 | 203 | 0.0 | 0.0 | 0.00 | 0.14 | 0.14 | 95 | 1020.7 |
| 20260903061514 | 68 | 194 | 0.0 | 0.0 | 0.07 | 0.14 | 0.14 | 95 | 1021.2 |
| 20260903061003 | 68 | 317 | 0.0 | 0.0 | 0.07 | 0.14 | 0.14 | 95 | 1021.0 |
| 20260903060457 | 68 | 313 | 1.0 | 1.0 | 0.07 | 0.14 | 0.14 | 95 | 1021.2 |
| 20260903055957 | 68 | 263 | 0.0 | 0.0 | 0.00 | 0.13 | 0.13 | 95 | 1021.3 |
| 20260903055455 | 68 | 224 | 0.0 | 0.0 | 0.05 | 0.13 | 0.13 | 95 | 1021.1 |
| 20260903054954 | 68 | 192 | 0.0 | 0.0 | 0.05 | 0.13 | 0.13 | 94 | 1021.0 |
| 20260903054449 | 68 | 169 | 1.0 | 1.0 | 0.07 | 0.12 | 0.12 | 94 | 1021.0 |
| 20260903053945 | 68 | 281 | 1.0 | 2.0 | 0.12 | 0.12 | 0.12 | 94 | 1021.2 |
| 20260903053444 | 68 | 175 | 0.0 | 1.0 | 0.05 | 0.11 | 0.11 | 94 | 1021.0 |
| 20260903052941 | 68 | 188 | 0.0 | 0.0 | 0.07 | 0.10 | 0.10 | 94 | 1021.5 |
| 20260903052437 | 68 | 215 | 0.0 | 0.0 | 0.12 | 0.10 | 0.10 | 94 | 1022.0 |
| 20260903051932 | 68 | 218 | 0.0 | 0.0 | 0.19 | 0.09 | 0.09 | 94 | 1022.2 |
| 20260903051427 | 68 | 202 | 0.0 | 0.0 | 0.26 | 0.08 | 0.08 | 94 | 1022.3 |
| 20260903050923 | 68 | 276 | 2.0 | 2.0 | 0.17 | 0.06 | 0.06 | 94 | 1023.0 |
| 20260903050421 | 68 | 272 | 2.0 | 3.0 | 0.12 | 0.04 | 0.04 | 93 | 1023.4 |
| 20260903045916 | 68 | 258 | 1.0 | 1.0 | 0.12 | 0.03 | 0.03 | 93 | 1023.2 |
| 20260903045412 | 68 | 263 | 1.0 | 1.0 | 0.19 | 0.03 | 0.03 | 93 | 1022.7 |
| 20260903044909 | 69 | 215 | 0.0 | 0.0 | 0.07 | 0.01 | 0.01 | 93 | 1022.6 |
| 20260903044409 | 69 | 230 | 0.0 | 1.0 | 0.00 | 0.00 | 0.00 | 92 | 1022.8 |
| 20260903043906 | 69 | 229 | 0.0 | 0.0 | 0.00 | 0.00 | 0.00 | 92 | 1022.9 |
| 20260903043401 | 69 | 219 | 0.0 | 0.0 | 0.00 | 0.00 | 0.00 | 92 | 1022.9 |
| 20260903042859 | 69 | 219 | 0.0 | 0.0 | 0.00 | 0.00 | 0.00 | 92 | 1022.9 |
| 20260903042355 | 69 | 219 | 0.0 | 0.0 | 0.00 | 0.00 | 0.00 | 92 | 1022.6 |
| 20260903041851 | 69 | 219 | 0.0 | 0.0 | 0.00 | 0.00 | 0.00 | 92 | 1022.6 |
| 20260903041347 | 69 | 220 | 0.0 | 0.0 | 0.00 | 0.00 | 0.00 | 91 | 1022.9 |
| 20260903040843 | 69 | 220 | 0.0 | 0.0 | 0.00 | 0.00 | 0.00 | 91 | 1023.1 |
| 20260903040341 | 69 | 210 | 0.0 | 0.0 | 0.00 | 0.00 | 0.00 | 91 | 1022.9 |
| 20260903035838 | 69 | 197 | 0.0 | 0.0 | 0.00 | 0.15 | 0.15 | 91 | 1023.1 |
| 20260903035338 | 69 | 189 | 1.0 | 2.0 | 0.00 | 0.15 | 0.15 | 91 | 1023.1 |
| 20260903034833 | 69 | 208 | 0.0 | 0.0 | 0.00 | 0.15 | 0.15 | 91 | 1023.1 |
| 20260903034328 | 69 | 208 | 0.0 | 0.0 | 0.00 | 0.15 | 0.15 | 90 | 1023.2 |
| 20260903033823 | 69 | 203 | 0.0 | 0.0 | 0.00 | 0.15 | 0.15 | 90 | 1022.9 |
| 20260903033318 | 69 | 203 | 0.0 | 0.0 | 0.00 | 0.15 | 0.15 | 90 | 1022.6 |
| 20260903032818 | 69 | 199 | 0.0 | 0.0 | 0.00 | 0.15 | 0.15 | 90 | 1022.8 |
| 20260903032314 | 69 | 159 | 2.0 | 2.0 | 0.00 | 0.15 | 0.15 | 90 | 1022.6 |
| 20260903031809 | 69 | 188 | 0.0 | 0.0 | 0.00 | 0.15 | 0.15 | 90 | 1022.6 |
| 20260903031308 | 69 | 178 | 1.0 | 1.0 | 0.00 | 0.15 | 0.15 | 90 | 1022.8 |
| 20260903030805 | 69 | 237 | 1.0 | 1.0 | 0.00 | 0.15 | 0.15 | 90 | 1022.8 |
| 20260903030301 | 69 | 183 | 0.0 | 0.0 | 0.00 | 0.15 | 0.15 | 90 | 1023.0 |
| 20260903025756 | 69 | 181 | 0.0 | 0.0 | 0.00 | 0.15 | 0.15 | 90 | 1022.9 |
| 20260903025252 | 69 | 158 | 2.0 | 2.0 | 0.00 | 0.15 | 0.15 | 89 | 1023.0 |
| 20260903024752 | 69 | 197 | 0.0 | 0.0 | 0.00 | 0.15 | 0.15 | 89 | 1023.2 |
| 20260903024251 | 69 | 192 | 2.0 | 2.0 | 0.00 | 0.15 | 0.15 | 89 | 1023.1 |
| 20260903023747 | 68 | 108 | 2.0 | 3.0 | 0.00 | 0.15 | 0.15 | 89 | 1023.0 |
| 20260903023243 | 68 | 169 | 0.0 | 1.0 | 0.00 | 0.15 | 0.15 | 89 | 1023.3 |
| 20260903022742 | 68 | 170 | 1.0 | 1.0 | 0.00 | 0.15 | 0.15 | 89 | 1023.2 |
| 20260903022241 | 68 | 165 | 1.0 | 1.0 | 0.00 | 0.15 | 0.15 | 89 | 1023.5 |
| 20260903021736 | 68 | 178 | 1.0 | 1.0 | 0.00 | 0.15 | 0.15 | 89 | 1023.6 |
| 20260903021231 | 68 | 136 | 0.0 | 1.0 | 0.00 | 0.15 | 0.15 | 89 | 1023.4 |
| 20260903020725 | 69 | 183 | 0.0 | 1.0 | 0.00 | 0.15 | 0.15 | 89 | 1023.5 |
| 20260903020220 | 68 | 150 | 2.0 | 3.0 | 0.00 | 0.15 | 0.15 | 89 | 1023.6 |
| 20260903015715 | 68 | 200 | 3.0 | 4.0 | 0.00 | 0.15 | 0.15 | 89 | 1023.4 |
| 20260903015211 | 68 | 179 | 1.0 | 1.0 | 0.00 | 0.15 | 0.15 | 89 | 1023.5 |
| 20260903014707 | 68 | 166 | 1.0 | 1.0 | 0.00 | 0.15 | 0.15 | 89 | 1023.4 |
| 20260903014205 | 68 | 185 | 1.0 | 1.0 | 0.00 | 0.15 | 0.15 | 89 | 1023.7 |
| 20260903013700 | 69 | 174 | 0.0 | 1.0 | 0.00 | 0.15 | 0.15 | 89 | 1023.5 |
| 20260903013159 | 69 | 163 | 0.0 | 1.0 | 0.00 | 0.15 | 0.15 | 88 | 1023.6 |
| 20260903012658 | 69 | 96 | 3.0 | 3.0 | 0.00 | 0.15 | 0.15 | 88 | 1023.6 |
| 20260903012158 | 69 | 159 | 2.0 | 3.0 | 0.00 | 0.15 | 0.15 | 88 | 1023.5 |
| 20260903011652 | 69 | 144 | 3.0 | 4.0 | 0.00 | 0.15 | 0.15 | 88 | 1023.5 |
| 20260903011146 | 69 | 167 | 2.0 | 2.0 | 0.00 | 0.15 | 0.15 | 88 | 1024.1 |
| 20260903010642 | 69 | 96 | 2.0 | 3.0 | 0.00 | 0.15 | 0.15 | 88 | 1023.9 |
| 20260903010141 | 69 | 93 | 1.0 | 2.0 | 0.00 | 0.15 | 0.15 | 88 | 1023.9 |
| 20260903005640 | 69 | 188 | 0.0 | 1.0 | 0.00 | 0.15 | 0.15 | 88 | 1023.8 |
| 20260903005136 | 69 | 201 | 0.0 | 1.0 | 0.00 | 0.15 | 0.15 | 88 | 1024.0 |
| 20260903004631 | 68 | 189 | 1.0 | 1.0 | 0.00 | 0.15 | 0.15 | 88 | 1024.1 |
| 20260903004126 | 68 | 160 | 1.0 | 2.0 | 0.00 | 0.15 | 0.15 | 88 | 1024.4 |
| 20260903003621 | 68 | 146 | 0.0 | 0.0 | 0.00 | 0.15 | 0.15 | 88 | 1024.2 |
| 20260903003116 | 68 | 179 | 2.0 | 2.0 | 0.00 | 0.15 | 0.15 | 88 | 1024.2 |
| 20260903002612 | 68 | 180 | 1.0 | 1.0 | 0.00 | 0.15 | 0.15 | 88 | 1024.0 |
| 20260903002106 | 68 | 134 | 4.0 | 6.0 | 0.00 | 0.15 | 0.15 | 88 | 1023.8 |
| 20260903001601 | 68 | 150 | 3.0 | 3.0 | 0.00 | 0.15 | 0.15 | 88 | 1023.7 |
| 20260903001055 | 68 | 148 | 3.0 | 3.0 | 0.00 | 0.15 | 0.15 | 88 | 1023.8 |
| 20260903000551 | 68 | 196 | 0.0 | 0.0 | 0.00 | 0.15 | 0.15 | 88 | 1023.4 |
| 20260903000049 | 68 | 159 | 1.0 | 1.0 | 0.00 | 0.15 | 0.15 | 88 | 1023.3 |
| 20260902235543 | 68 | 129 | 2.0 | 3.0 | 0.00 | 0.15 | 0.15 | 88 | 1023.5 |
| 20260902235038 | 68 | 190 | 0.0 | 0.0 | 0.00 | 0.15 | 0.15 | 88 | 1023.2 |
| 20260902234538 | 68 | 179 | 1.0 | 1.0 | 0.00 | 0.15 | 0.15 | 88 | 1023.2 |
| 20260902234036 | 68 | 166 | 1.0 | 1.0 | 0.00 | 0.15 | 0.15 | 88 | 1023.2 |
| 20260902233531 | 68 | 116 | 3.0 | 4.0 | 0.00 | 0.15 | 0.15 | 88 | 1023.3 |
| 20260902233026 | 67 | 100 | 3.0 | 4.0 | 0.00 | 0.15 | 0.15 | 89 | 1023.5 |
| 20260902232525 | 67 | 91 | 2.0 | 2.0 | 0.00 | 0.15 | 0.15 | 90 | 1023.5 |
| 20260902232014 | 67 | 327 | 2.0 | 3.0 | 0.00 | 0.15 | 0.15 | 90 | 1023.5 |
| 20260902231509 | 67 | 184 | 0.0 | 0.0 | 0.00 | 0.15 | 0.15 | 90 | 1023.6 |
| 20260902231003 | 67 | 97 | 2.0 | 2.0 | 0.00 | 0.15 | 0.15 | 90 | 1023.6 |
| 20260902230503 | 67 | 196 | 0.0 | 1.0 | 0.00 | 0.15 | 0.15 | 90 | 1023.8 |
| 20260902225956 | 67 | 168 | 1.0 | 1.0 | 0.00 | 0.15 | 0.15 | 90 | 1023.9 |
| 20260902225451 | 67 | 80 | 1.0 | 1.0 | 0.00 | 0.15 | 0.15 | 90 | 1023.8 |
| 20260902224951 | 67 | 189 | 0.0 | 0.0 | 0.00 | 0.15 | 0.15 | 90 | 1024.0 |
| 20260902224445 | 67 | 131 | 1.0 | 1.0 | 0.00 | 0.15 | 0.15 | 90 | 1024.2 |
| 20260902223942 | 67 | 196 | 0.0 | 0.0 | 0.00 | 0.15 | 0.15 | 90 | 1024.2 |
| 20260902223437 | 67 | 33 | 2.0 | 3.0 | 0.00 | 0.15 | 0.15 | 90 | 1024.1 |
| 20260902222936 | 67 | 107 | 1.0 | 1.0 | 0.00 | 0.15 | 0.15 | 90 | 1024.3 |
| 20260902222434 | 67 | 180 | 1.0 | 1.0 | 0.00 | 0.15 | 0.15 | 89 | 1024.3 |
| 20260902221929 | 67 | 176 | 0.0 | 0.0 | 0.00 | 0.15 | 0.15 | 89 | 1024.5 |
| 20260902221428 | 67 | 186 | 0.0 | 0.0 | 0.00 | 0.15 | 0.15 | 89 | 1024.8 |
| 20260902220923 | 67 | 197 | 0.0 | 0.0 | 0.00 | 0.15 | 0.15 | 89 | 1024.6 |
| 20260902220417 | 67 | 166 | 0.0 | 1.0 | 0.00 | 0.15 | 0.15 | 89 | 1024.5 |
| 20260902215913 | 67 | 148 | 1.0 | 2.0 | 0.00 | 0.15 | 0.15 | 88 | 1024.6 |
| 20260902215408 | 67 | 139 | 1.0 | 1.0 | 0.00 | 0.15 | 0.15 | 88 | 1024.8 |
| 20260902214904 | 67 | 181 | 0.0 | 0.0 | 0.00 | 0.15 | 0.15 | 88 | 1024.7 |
| 20260902214402 | 68 | 183 | 1.0 | 1.0 | 0.00 | 0.15 | 0.15 | 88 | 1024.5 |
| 20260902213857 | 67 | 188 | 1.0 | 1.0 | 0.00 | 0.15 | 0.15 | 88 | 1024.6 |
| 20260902213354 | 67 | 159 | 0.0 | 0.0 | 0.00 | 0.15 | 0.15 | 88 | 1024.5 |
| 20260902212852 | 67 | 169 | 1.0 | 1.0 | 0.00 | 0.15 | 0.15 | 87 | 1024.4 |
| 20260902212349 | 67 | 187 | 1.0 | 2.0 | 0.00 | 0.15 | 0.15 | 88 | 1024.4 |
| 20260902211845 | 67 | 183 | 2.0 | 3.0 | 0.00 | 0.15 | 0.15 | 88 | 1024.5 |
| 20260902211340 | 67 | 157 | 1.0 | 1.0 | 0.00 | 0.15 | 0.15 | 88 | 1024.4 |
| 20260902210835 | 67 | 151 | 2.0 | 2.0 | 0.00 | 0.15 | 0.15 | 88 | 1024.5 |
| 20260902210334 | 67 | 183 | 2.0 | 2.0 | 0.00 | 0.15 | 0.15 | 88 | 1024.4 |
| 20260902205833 | 67 | 133 | 2.0 | 2.0 | 0.00 | 0.15 | 0.15 | 88 | 1024.4 |
| 20260902205327 | 66 | 176 | 1.0 | 2.0 | 0.00 | 0.15 | 0.15 | 88 | 1024.4 |
| 20260902204824 | 66 | 115 | 2.0 | 3.0 | 0.00 | 0.15 | 0.15 | 88 | 1024.3 |
| 20260902204318 | 66 | 189 | 2.0 | 2.0 | 0.00 | 0.15 | 0.15 | 88 | 1024.2 |
| 20260902203814 | 66 | 166 | 1.0 | 2.0 | 0.00 | 0.15 | 0.15 | 89 | 1024.0 |
| 20260902203309 | 66 | 191 | 2.0 | 3.0 | 0.00 | 0.15 | 0.15 | 90 | 1024.3 |
| 20260902202808 | 66 | 150 | 1.0 | 1.0 | 0.00 | 0.15 | 0.15 | 91 | 1024.2 |
| 20260902202306 | 67 | 186 | 0.0 | 0.0 | 0.00 | 0.15 | 0.15 | 92 | 1024.4 |
| 20260902201801 | 67 | 117 | 3.0 | 4.0 | 0.00 | 0.15 | 0.15 | 92 | 1024.3 |
| 20260902201301 | 67 | 157 | 2.0 | 3.0 | 0.00 | 0.15 | 0.15 | 92 | 1024.2 |
| 20260902200756 | 66 | 44 | 2.0 | 4.0 | 0.00 | 0.15 | 0.15 | 92 | 1024.0 |
| 20260902200252 | 66 | 146 | 2.0 | 3.0 | 0.00 | 0.15 | 0.15 | 92 | 1024.2 |
| 20260902195747 | 66 | 194 | 3.0 | 3.0 | 0.05 | 0.15 | 0.15 | 93 | 1024.4 |
| 20260902195246 | 66 | 193 | 2.0 | 2.0 | 0.12 | 0.15 | 0.15 | 92 | 1024.4 |
| 20260902194745 | 66 | 87 | 4.0 | 4.0 | 0.07 | 0.14 | 0.14 | 92 | 1024.3 |
| 20260902194241 | 66 | 259 | 0.0 | 0.0 | 0.00 | 0.13 | 0.13 | 92 | 1024.9 |
| 20260902193736 | 66 | 136 | 2.0 | 2.0 | 0.05 | 0.13 | 0.13 | 92 | 1025.0 |
| 20260902193231 | 67 | 203 | 0.0 | 0.0 | 0.05 | 0.13 | 0.13 | 92 | 1024.9 |
| 20260902192731 | 67 | 221 | 1.0 | 1.0 | 0.00 | 0.12 | 0.12 | 92 | 1024.8 |
| 20260902192230 | 67 | 220 | 0.0 | 1.0 | 0.07 | 0.12 | 0.12 | 92 | 1024.6 |
| 20260902191725 | 67 | 108 | 0.0 | 1.0 | 0.19 | 0.12 | 0.12 | 91 | 1024.7 |
| 20260902191225 | 67 | 133 | 1.0 | 1.0 | 0.24 | 0.11 | 0.11 | 91 | 1024.9 |
| 20260902190720 | 67 | 84 | 1.0 | 1.0 | 0.47 | 0.10 | 0.10 | 90 | 1025.1 |
| 20260902190220 | 68 | 61 | 3.0 | 3.0 | 0.35 | 0.07 | 0.07 | 89 | 1024.9 |
| 20260902185716 | 68 | 205 | 0.0 | 0.0 | 0.05 | 0.02 | 0.02 | 87 | 1025.4 |
| 20260902185208 | 69 | 281 | 3.0 | 3.0 | 0.00 | 0.01 | 0.01 | 85 | 1025.5 |
| 20260902184701 | 69 | 253 | 0.0 | 0.0 | 0.00 | 0.01 | 0.01 | 83 | 1025.4 |
| 20260902184156 | 70 | 241 | 0.0 | 0.0 | 0.00 | 0.01 | 0.01 | 82 | 1025.1 |
| 20260902183652 | 70 | 100 | 4.0 | 4.0 | 0.00 | 0.01 | 0.01 | 82 | 1024.8 |
| 20260902183149 | 70 | 79 | 2.0 | 2.0 | 0.00 | 0.01 | 0.01 | 82 | 1024.7 |
| 20260902182644 | 70 | 98 | 2.0 | 4.0 | 0.00 | 0.01 | 0.01 | 81 | 1024.3 |
| 20260902182141 | 70 | 144 | 1.0 | 2.0 | 0.00 | 0.01 | 0.01 | 81 | 1024.6 |
| 20260902181637 | 70 | 136 | 4.0 | 4.0 | 0.00 | 0.01 | 0.01 | 81 | 1024.6 |
| 20260902181136 | 70 | 186 | 2.0 | 2.0 | 0.00 | 0.01 | 0.01 | 81 | 1024.7 |
| 20260902180635 | 70 | 67 | 4.0 | 6.0 | 0.00 | 0.01 | 0.01 | 80 | 1024.8 |
| 20260902180132 | 70 | 107 | 2.0 | 2.0 | 0.00 | 0.01 | 0.01 | 81 | 1024.7 |
| 20260902175631 | 70 | 89 | 2.0 | 3.0 | 0.00 | 0.01 | 0.01 | 81 | 1024.9 |
| 20260902175127 | 70 | 124 | 2.0 | 3.0 | 0.00 | 0.01 | 0.01 | 81 | 1024.9 |
| 20260902174623 | 71 | 173 | 5.0 | 7.0 | 0.00 | 0.01 | 0.01 | 80 | 1024.9 |
| 20260902174119 | 71 | 162 | 0.0 | 0.0 | 0.00 | 0.01 | 0.01 | 81 | 1024.9 |
| 20260902173614 | 70 | 110 | 4.0 | 7.0 | 0.00 | 0.01 | 0.01 | 80 | 1024.9 |
| 20260902173109 | 70 | 41 | 3.0 | 3.0 | 0.00 | 0.01 | 0.01 | 81 | 1025.0 |
| 20260902172609 | 70 | 170 | 5.0 | 6.0 | 0.00 | 0.01 | 0.01 | 80 | 1024.9 |
| 20260902172103 | 70 | 190 | 2.0 | 2.0 | 0.00 | 0.01 | 0.01 | 82 | 1024.8 |
| 20260902171559 | 70 | 162 | 2.0 | 2.0 | 0.00 | 0.01 | 0.01 | 82 | 1024.8 |
| 20260902171054 | 70 | 149 | 4.0 | 6.0 | 0.00 | 0.01 | 0.01 | 82 | 1025.1 |
| 20260902170549 | 69 | 128 | 2.0 | 3.0 | 0.00 | 0.01 | 0.01 | 82 | 1025.0 |
| 20260902170045 | 69 | 157 | 2.0 | 3.0 | 0.00 | 0.01 | 0.01 | 83 | 1025.3 |
| 20260902165539 | 69 | 91 | 3.0 | 4.0 | 0.00 | 0.01 | 0.01 | 82 | 1025.2 |
| 20260902165033 | 69 | 171 | 3.0 | 3.0 | 0.00 | 0.01 | 0.01 | 82 | 1025.3 |
| 20260902164529 | 69 | 141 | 1.0 | 2.0 | 0.00 | 0.01 | 0.01 | 83 | 1025.5 |
| 20260902164027 | 69 | 140 | 3.0 | 4.0 | 0.00 | 0.01 | 0.01 | 83 | 1025.3 |
| 20260902163524 | 69 | 127 | 1.0 | 2.0 | 0.00 | 0.01 | 0.01 | 83 | 1025.5 |
| 20260902163021 | 69 | 133 | 3.0 | 3.0 | 0.00 | 0.01 | 0.01 | 83 | 1025.4 |
| 20260902162516 | 69 | 150 | 2.0 | 3.0 | 0.00 | 0.01 | 0.01 | 83 | 1025.1 |
| 20260902162011 | 68 | 165 | 1.0 | 2.0 | 0.00 | 0.01 | 0.01 | 83 | 1025.3 |
| 20260902161506 | 68 | 185 | 0.0 | 1.0 | 0.00 | 0.01 | 0.01 | 83 | 1025.2 |
| 20260902161002 | 68 | 104 | 4.0 | 4.0 | 0.00 | 0.01 | 0.01 | 83 | 1025.0 |
| 20260902160458 | 68 | 83 | 5.0 | 7.0 | 0.00 | 0.01 | 0.01 | 83 | 1025.3 |
| 20260902155955 | 69 | 181 | 1.0 | 1.0 | 0.00 | 0.01 | 0.01 | 83 | 1025.5 |
| 20260902155451 | 69 | 125 | 3.0 | 6.0 | 0.00 | 0.01 | 0.01 | 82 | 1025.2 |
| 20260902154945 | 69 | 153 | 2.0 | 2.0 | 0.00 | 0.01 | 0.01 | 82 | 1025.4 |
| 20260902154440 | 69 | 115 | 3.0 | 4.0 | 0.00 | 0.01 | 0.01 | 82 | 1025.3 |
| 20260902153939 | 69 | 133 | 6.0 | 7.0 | 0.00 | 0.01 | 0.01 | 81 | 1025.3 |
| 20260902153437 | 69 | 143 | 4.0 | 6.0 | 0.00 | 0.01 | 0.01 | 82 | 1025.5 |
| 20260902152934 | 69 | 148 | 5.0 | 7.0 | 0.00 | 0.01 | 0.01 | 82 | 1025.4 |
| 20260902152429 | 69 | 139 | 1.0 | 2.0 | 0.00 | 0.01 | 0.01 | 82 | 1025.5 |